Location: Santiago
(33.4378°S, 70.6505°W)
Time: 07:43:08
(UTC+00:00)

ISS - Pass Details

Date: 06 February 2026
Orbit: 413 x 428 km, 51.6° (Epoch: 13 February)

Event Time Altitude Azimuth Distance (km) Brightness Sun altitude
Exits shadow 09:29:44 - 242° (WSW) 2,389 -0.3 -8.6°
Reaches altitude 10° 09:32:10 10° 259° (WSW) 1,530 -1.4 -8.2°
Maximum altitude 09:34:46 20° 308° (NW) 1,045 -2.3 -7.7°
Drops below altitude 10° 09:37:21 10° 358° (N) 1,507 -1.2 -7.2°
Sets 09:39:46 0° 15° (NNE) 2,359 0.0 -6.7°
